Time,TemperatureF,DewpointF,PressureIn,WindDirection,WindDirectionDegrees,WindSpeedMPH,WindSpeedGustMPH,Humidity,HourlyPrecipIn,Conditions,Clouds,dailyrainin,SoftwareType,DateUTC
2013-01-16 00:02:00,6.0,-3.0,-100.00,NNE,25,0.0,2.0,65,0.00,,,-99.99,,2013-01-16 07:02:00,
2013-01-16 00:11:00,6.0,-3.0,-100.00,NNE,25,0.0,1.0,66,0.00,,,-99.99,,2013-01-16 07:11:00,
2013-01-16 00:22:00,6.0,-2.0,-100.00,SSW,195,0.0,1.0,67,0.00,,,-99.99,,2013-01-16 07:22:00,
2013-01-16 00:32:00,6.0,-2.0,-100.00,ESE,105,1.0,2.0,68,0.00,,,-99.99,,2013-01-16 07:32:00,
2013-01-16 00:42:00,6.0,-1.0,-100.00,SSW,200,0.0,1.0,69,0.00,,,-99.99,,2013-01-16 07:42:00,
2013-01-16 00:52:00,6.0,-1.0,-100.00,WSW,245,0.0,1.0,70,0.00,,,-99.99,,2013-01-16 07:52:00,
2013-01-16 01:02:00,7.0,-1.0,-100.00,NE,45,0.0,2.0,71,0.00,,,-99.99,,2013-01-16 08:02:00,
2013-01-16 01:11:00,7.0,0.0,-100.00,SE,125,0.0,1.0,71,0.00,,,-99.99,,2013-01-16 08:11:00,
2013-01-16 01:22:00,7.0,0.0,-100.00,SSW,195,0.0,2.0,72,0.00,,,-99.99,,2013-01-16 08:22:00,
2013-01-16 01:32:00,8.0,1.0,-100.00,SW,225,0.0,2.0,72,0.00,,,-99.99,,2013-01-16 08:32:00,
2013-01-16 01:42:00,8.0,1.0,-100.00,South,190,1.0,2.0,72,0.00,,,-99.99,,2013-01-16 08:42:00,
2013-01-16 01:52:00,8.0,1.0,-100.00,SSW,200,1.0,3.0,73,0.00,,,-99.99,,2013-01-16 08:52:00,
2013-01-16 02:02:00,8.0,1.0,-100.00,WSW,255,0.0,3.0,73,0.00,,,-99.99,,2013-01-16 09:02:00,
2013-01-16 02:11:00,7.0,1.0,-100.00,West,270,1.0,4.0,73,0.00,,,-99.99,,2013-01-16 09:11:00,
2013-01-16 02:22:00,7.0,0.0,-100.00,SSW,210,1.0,2.0,73,0.00,,,-99.99,,2013-01-16 09:22:00,
2013-01-16 02:32:00,7.0,1.0,-100.00,WNW,285,4.0,7.0,73,0.00,,,-99.99,,2013-01-16 09:32:00,
2013-01-16 02:42:00,7.0,0.0,-100.00,WNW,285,4.0,6.0,72,0.00,,,-99.99,,2013-01-16 09:42:00,
2013-01-16 02:52:00,7.0,0.0,-100.00,NW,310,6.0,8.0,71,0.00,,,-99.99,,2013-01-16 09:52:00,
2013-01-16 03:02:00,6.0,-1.0,-100.00,NW,320,4.0,7.0,70,0.00,,,-99.99,,2013-01-16 10:02:00,
2013-01-16 03:11:00,6.0,-1.0,-100.00,ESE,105,1.0,2.0,70,0.00,,,-99.99,,2013-01-16 10:11:00,
2013-01-16 03:22:00,6.0,-2.0,-100.00,WNW,295,1.0,3.0,70,0.00,,,-99.99,,2013-01-16 10:22:00,
2013-01-16 03:32:00,6.0,-2.0,-100.00,North,5,1.0,3.0,70,0.00,,,-99.99,,2013-01-16 10:32:00,
2013-01-16 03:42:00,6.0,-2.0,-100.00,North,5,0.0,2.0,70,0.00,,,-99.99,,2013-01-16 10:42:00,
2013-01-16 03:52:00,6.0,-2.0,-100.00,WSW,240,0.0,1.0,71,0.00,,,-99.99,,2013-01-16 10:52:00,
2013-01-16 04:02:00,6.0,-1.0,-100.00,South,185,0.0,2.0,71,0.00,,,-99.99,,2013-01-16 11:02:00,
2013-01-16 04:11:00,6.0,-1.0,-100.00,SSW,205,2.0,4.0,72,0.00,,,-99.99,,2013-01-16 11:11:00,
2013-01-16 04:22:00,6.0,-1.0,-100.00,SW,215,2.0,4.0,72,0.00,,,-99.99,,2013-01-16 11:22:00,
2013-01-16 04:32:00,6.0,-1.0,-100.00,NW,315,6.0,7.0,72,0.00,,,-99.99,,2013-01-16 11:32:00,
2013-01-16 04:42:00,6.0,-1.0,-100.00,SSW,210,1.0,6.0,72,0.00,,,-99.99,,2013-01-16 11:42:00,
2013-01-16 04:52:00,6.0,-1.0,-100.00,North,0,3.0,4.0,72,0.00,,,-99.99,,2013-01-16 11:52:00,
2013-01-16 05:02:00,6.0,-1.0,-100.00,WSW,245,2.0,6.0,71,0.00,,,-99.99,,2013-01-16 12:02:00,
2013-01-16 05:12:00,6.0,-1.0,-100.00,SW,215,1.0,2.0,71,0.00,,,-99.99,,2013-01-16 12:12:00,
2013-01-16 05:22:00,6.0,-1.0,-100.00,SW,215,1.0,6.0,71,0.00,,,-99.99,,2013-01-16 12:22:00,
2013-01-16 05:32:00,6.0,-2.0,-100.00,West,280,1.0,2.0,70,0.00,,,-99.99,,2013-01-16 12:32:00,
2013-01-16 05:42:00,6.0,-2.0,-100.00,NNW,330,2.0,6.0,70,0.00,,,-99.99,,2013-01-16 12:42:00,
2013-01-16 05:52:00,5.0,-3.0,-100.00,SE,140,0.0,3.0,70,0.00,,,-99.99,,2013-01-16 12:52:00,
2013-01-16 06:02:00,4.0,-3.0,-100.00,West,265,0.0,2.0,70,0.00,,,-99.99,,2013-01-16 13:02:00,
2013-01-16 06:12:00,4.0,-4.0,-100.00,SSW,205,0.0,3.0,70,0.00,,,-99.99,,2013-01-16 13:12:00,
2013-01-16 06:22:00,4.0,-3.0,-100.00,North,0,1.0,3.0,71,0.00,,,-99.99,,2013-01-16 13:22:00,
2013-01-16 06:32:00,3.0,-4.0,-100.00,SSW,195,1.0,3.0,71,0.00,,,-99.99,,2013-01-16 13:32:00,
2013-01-16 06:42:00,3.0,-3.0,-100.00,NW,320,1.0,2.0,72,0.00,,,-99.99,,2013-01-16 13:42:00,
2013-01-16 06:52:00,3.0,-4.0,-100.00,NW,315,0.0,2.0,72,0.00,,,-99.99,,2013-01-16 13:52:00,
2013-01-16 07:02:00,3.0,-3.0,-100.00,NW,310,0.0,3.0,73,0.00,,,-99.99,,2013-01-16 14:02:00,
2013-01-16 07:12:00,3.0,-4.0,-100.00,WSW,250,0.0,2.0,74,0.00,,,-99.99,,2013-01-16 14:12:00,
2013-01-16 07:22:00,3.0,-3.0,-100.00,SSW,210,2.0,4.0,74,0.00,,,-99.99,,2013-01-16 14:22:00,
2013-01-16 07:32:00,2.0,-3.0,-100.00,SSW,205,0.0,2.0,75,0.00,,,-99.99,,2013-01-16 14:32:00,
2013-01-16 07:42:00,2.0,-4.0,-100.00,WSW,245,0.0,2.0,75,0.00,,,-99.99,,2013-01-16 14:42:00,
2013-01-16 07:52:00,2.0,-4.0,-100.00,SE,135,0.0,2.0,76,0.00,,,-99.99,,2013-01-16 14:52:00,
2013-01-16 08:02:00,2.0,-3.0,-100.00,WSW,255,0.0,4.0,76,0.00,,,-99.99,,2013-01-16 15:02:00,
2013-01-16 08:12:00,2.0,-3.0,-100.00,ESE,105,1.0,3.0,77,0.00,,,-99.99,,2013-01-16 15:12:00,
2013-01-16 08:22:00,2.0,-3.0,-100.00,SSW,195,0.0,1.0,77,0.00,,,-99.99,,2013-01-16 15:22:00,
2013-01-16 08:32:00,3.0,-2.0,-100.00,SSW,195,0.0,3.0,78,0.00,,,-99.99,,2013-01-16 15:32:00,
2013-01-16 08:42:00,3.0,-2.0,-100.00,NNE,30,0.0,2.0,78,0.00,,,-99.99,,2013-01-16 15:42:00,
2013-01-16 08:52:00,4.0,-1.0,-100.00,WNW,290,1.0,2.0,79,0.00,,,-99.99,,2013-01-16 15:52:00,
2013-01-16 09:03:00,5.0,0.0,-100.00,North,350,1.0,4.0,79,0.00,,,-99.99,,2013-01-16 16:03:00,
2013-01-16 09:12:00,5.0,0.0,-100.00,SE,145,1.0,4.0,79,0.00,,,-99.99,,2013-01-16 16:12:00,
2013-01-16 09:22:00,6.0,0.0,-100.00,SE,145,0.0,2.0,78,0.00,,,-99.99,,2013-01-16 16:22:00,
2013-01-16 09:32:00,6.0,1.0,-100.00,South,190,0.0,6.0,78,0.00,,,-99.99,,2013-01-16 16:32:00,
2013-01-16 09:42:00,7.0,1.0,-100.00,South,180,2.0,2.0,78,0.00,,,-99.99,,2013-01-16 16:42:00,
2013-01-16 09:52:00,7.0,1.0,-100.00,SSW,205,3.0,4.0,77,0.00,,,-99.99,,2013-01-16 16:52:00,
2013-01-16 10:02:00,8.0,2.0,-100.00,SSW,210,1.0,3.0,76,0.00,,,-99.99,,2013-01-16 17:02:00,
2013-01-16 10:12:00,9.0,2.0,-100.00,SSW,205,1.0,2.0,75,0.00,,,-99.99,,2013-01-16 17:12:00,
2013-01-16 10:22:00,10.0,4.0,-100.00,West,275,1.0,3.0,73,0.00,,,-99.99,,2013-01-16 17:22:00,
2013-01-16 10:33:00,12.0,5.0,-100.00,NNW,330,1.0,3.0,71,0.00,,,-99.99,,2013-01-16 17:33:00,
2013-01-16 10:43:00,14.0,5.0,-100.00,NW,305,0.0,4.0,66,0.00,,,-99.99,,2013-01-16 17:43:00,
2013-01-16 10:52:00,14.0,4.0,-100.00,South,180,2.0,3.0,62,0.00,,,-99.99,,2013-01-16 17:52:00,
2013-01-16 11:02:00,16.0,4.0,-100.00,South,185,2.0,3.0,59,0.00,,,-99.99,,2013-01-16 18:02:00,
2013-01-16 11:12:00,17.0,4.0,-100.00,South,170,2.0,4.0,56,0.00,,,-99.99,,2013-01-16 18:12:00,
2013-01-16 11:22:00,18.0,4.0,-100.00,SSE,165,2.0,4.0,53,0.00,,,-99.99,,2013-01-16 18:22:00,
2013-01-16 11:33:00,18.0,3.0,-100.00,South,190,3.0,5.0,52,0.00,,,-99.99,,2013-01-16 18:33:00,
2013-01-16 11:42:00,19.0,4.0,-100.00,SSW,195,4.0,5.0,52,0.00,,,-99.99,,2013-01-16 18:42:00,
2013-01-16 11:52:00,20.0,5.0,-100.00,SSW,195,3.0,5.0,51,0.00,,,-99.99,,2013-01-16 18:52:00,
2013-01-16 12:02:00,22.0,6.0,-100.00,South,170,2.0,4.0,49,0.00,,,-99.99,,2013-01-16 19:02:00,
2013-01-16 12:12:00,23.0,6.0,-100.00,SSW,205,2.0,3.0,46,0.00,,,-99.99,,2013-01-16 19:12:00,
2013-01-16 12:22:00,25.0,6.0,-100.00,SSW,195,0.0,4.0,44,0.00,,,-99.99,,2013-01-16 19:22:00,
2013-01-16 12:32:00,28.0,7.0,-100.00,South,190,2.0,4.0,41,0.00,,,-99.99,,2013-01-16 19:32:00,
2013-01-16 12:42:00,28.0,6.0,-100.00,South,175,1.0,3.0,39,0.00,,,-99.99,,2013-01-16 19:42:00,
2013-01-16 12:52:00,28.0,6.0,-100.00,South,170,1.0,4.0,38,0.00,,,-99.99,,2013-01-16 19:52:00,
2013-01-16 13:02:00,28.0,6.0,-100.00,South,175,2.0,3.0,37,0.00,,,-99.99,,2013-01-16 20:02:00,
2013-01-16 13:12:00,29.0,6.0,-100.00,South,185,2.0,4.0,37,0.00,,,-99.99,,2013-01-16 20:12:00,
2013-01-16 13:23:00,29.0,6.0,-100.00,South,180,2.0,3.0,36,0.00,,,-99.99,,2013-01-16 20:23:00,
2013-01-16 13:32:00,29.0,6.0,-100.00,SSW,205,2.0,4.0,36,0.00,,,-99.99,,2013-01-16 20:32:00,
2013-01-16 13:42:00,31.0,7.0,-100.00,WNW,300,0.0,3.0,35,0.00,,,-99.99,,2013-01-16 20:42:00,
2013-01-16 13:52:00,31.0,6.0,-100.00,West,265,1.0,4.0,33,0.00,,,-99.99,,2013-01-16 20:52:00,
2013-01-16 14:02:00,32.0,7.0,-100.00,South,180,1.0,3.0,33,0.00,,,-99.99,,2013-01-16 21:02:00,
2013-01-16 14:12:00,33.0,7.0,-100.00,NW,305,1.0,2.0,32,0.00,,,-99.99,,2013-01-16 21:12:00,
2013-01-16 14:22:00,33.0,7.0,-100.00,WSW,240,0.0,2.0,32,0.00,,,-99.99,,2013-01-16 21:22:00,
2013-01-16 14:32:00,34.0,8.0,-100.00,WSW,250,1.0,3.0,32,0.00,,,-99.99,,2013-01-16 21:32:00,
2013-01-16 14:42:00,33.0,6.0,-100.00,WSW,250,1.0,3.0,31,0.00,,,-99.99,,2013-01-16 21:42:00,
2013-01-16 14:52:00,34.0,7.0,-100.00,SSW,200,0.0,4.0,31,0.00,,,-99.99,,2013-01-16 21:52:00,
2013-01-16 15:02:00,34.0,7.0,-100.00,SSW,200,1.0,4.0,31,0.00,,,-99.99,,2013-01-16 22:02:00,
2013-01-16 15:12:00,32.0,5.0,-100.00,SSW,200,1.0,3.0,31,0.00,,,-99.99,,2013-01-16 22:12:00,
2013-01-16 15:22:00,29.0,4.0,-100.00,West,265,2.0,4.0,34,0.00,,,-99.99,,2013-01-16 22:22:00,
2013-01-16 15:32:00,29.0,5.0,-100.00,NW,310,1.0,3.0,35,0.00,,,-99.99,,2013-01-16 22:32:00,
2013-01-16 15:42:00,28.0,6.0,-100.00,NW,305,2.0,5.0,37,0.00,,,-99.99,,2013-01-16 22:42:00,
2013-01-16 15:52:00,28.0,6.0,-100.00,NW,320,2.0,4.0,38,0.00,,,-99.99,,2013-01-16 22:52:00,
2013-01-16 16:02:00,28.0,6.0,-100.00,North,350,4.0,7.0,39,0.00,,,-99.99,,2013-01-16 23:02:00,
2013-01-16 16:12:00,28.0,7.0,-100.00,SSE,150,0.0,6.0,39,0.00,,,-99.99,,2013-01-16 23:12:00,
2013-01-16 16:22:00,28.0,7.0,-100.00,North,0,2.0,6.0,40,0.00,,,-99.99,,2013-01-16 23:22:00,
2013-01-16 16:32:00,28.0,7.0,-100.00,East,80,2.0,7.0,40,0.00,,,-99.99,,2013-01-16 23:32:00,
2013-01-16 16:42:00,28.0,7.0,-100.00,North,5,1.0,4.0,41,0.00,,,-99.99,,2013-01-16 23:42:00,
2013-01-16 16:52:00,27.0,7.0,-100.00,NE,35,0.0,3.0,42,0.00,,,-99.99,,2013-01-16 23:52:00,
2013-01-16 17:02:00,27.0,7.0,-100.00,NW,325,0.0,2.0,42,0.00,,,-99.99,,2013-01-17 00:02:00,
2013-01-16 17:12:00,25.0,6.0,-100.00,SW,225,0.0,1.0,43,0.00,,,-99.99,,2013-01-17 00:12:00,
2013-01-16 17:22:00,25.0,7.0,-100.00,NW,325,0.0,0.0,45,0.00,,,-99.99,,2013-01-17 00:22:00,
2013-01-16 17:32:00,24.0,7.0,-100.00,West,265,1.0,4.0,47,0.00,,,-99.99,,2013-01-17 00:32:00,
2013-01-16 17:42:00,23.0,7.0,-100.00,WNW,300,0.0,1.0,49,0.00,,,-99.99,,2013-01-17 00:42:00,
2013-01-16 17:52:00,23.0,8.0,-100.00,NNW,335,2.0,4.0,52,0.00,,,-99.99,,2013-01-17 00:52:00,
2013-01-16 18:02:00,22.0,8.0,-100.00,SSW,210,1.0,2.0,52,0.00,,,-99.99,,2013-01-17 01:02:00,
2013-01-16 18:12:00,22.0,8.0,-100.00,NW,310,0.0,1.0,54,0.00,,,-99.99,,2013-01-17 01:12:00,
2013-01-16 18:22:00,22.0,8.0,-100.00,WNW,295,0.0,1.0,56,0.00,,,-99.99,,2013-01-17 01:22:00,
2013-01-16 18:32:00,20.0,8.0,-100.00,SSE,165,1.0,4.0,57,0.00,,,-99.99,,2013-01-17 01:32:00,
2013-01-16 18:42:00,21.0,9.0,-100.00,NE,50,1.0,3.0,59,0.00,,,-99.99,,2013-01-17 01:42:00,
2013-01-16 18:52:00,21.0,10.0,-100.00,North,0,1.0,2.0,60,0.00,,,-99.99,,2013-01-17 01:52:00,
2013-01-16 19:02:00,21.0,10.0,-100.00,West,260,1.0,4.0,61,0.00,,,-99.99,,2013-01-17 02:02:00,
2013-01-16 19:12:00,20.0,9.0,-100.00,North,0,2.0,4.0,62,0.00,,,-99.99,,2013-01-17 02:12:00,
2013-01-16 19:22:00,19.0,8.0,-100.00,NW,320,0.0,1.0,63,0.00,,,-99.99,,2013-01-17 02:22:00,
2013-01-16 19:32:00,17.0,7.0,-100.00,SSW,205,0.0,1.0,63,0.00,,,-99.99,,2013-01-17 02:32:00,
2013-01-16 19:42:00,17.0,7.0,-100.00,SSW,205,0.0,1.0,63,0.00,,,-99.99,,2013-01-17 02:42:00,
2013-01-16 19:52:00,17.0,7.0,-100.00,SSW,205,0.0,1.0,63,0.00,,,-99.99,,2013-01-17 02:52:00,
2013-01-16 20:02:00,17.0,8.0,-100.00,NNW,330,0.0,2.0,67,0.00,,,-99.99,,2013-01-17 03:02:00,
2013-01-16 20:12:00,17.0,8.0,-100.00,SSW,205,0.0,4.0,68,0.00,,,-99.99,,2013-01-17 03:12:00,
2013-01-16 20:22:00,16.0,8.0,-100.00,SE,140,0.0,1.0,69,0.00,,,-99.99,,2013-01-17 03:22:00,
2013-01-16 20:32:00,16.0,8.0,-100.00,NNW,335,0.0,1.0,71,0.00,,,-99.99,,2013-01-17 03:32:00,
2013-01-16 20:42:00,15.0,8.0,-100.00,NNW,335,0.0,1.0,71,0.00,,,-99.99,,2013-01-17 03:42:00,
2013-01-16 20:52:00,15.0,8.0,-100.00,NW,320,0.0,1.0,72,0.00,,,-99.99,,2013-01-17 03:52:00,
2013-01-16 21:02:00,16.0,9.0,-100.00,West,260,0.0,4.0,74,0.00,,,-99.99,,2013-01-17 04:02:00,
2013-01-16 21:12:00,15.0,9.0,-100.00,North,0,0.0,2.0,74,0.00,,,-99.99,,2013-01-17 04:12:00,
2013-01-16 21:22:00,15.0,9.0,-100.00,SSE,150,1.0,3.0,75,0.00,,,-99.99,,2013-01-17 04:22:00,
2013-01-16 21:32:00,15.0,9.0,-100.00,South,175,0.0,3.0,76,0.00,,,-99.99,,2013-01-17 04:32:00,
2013-01-16 21:42:00,15.0,9.0,-100.00,North,5,1.0,2.0,76,0.00,,,-99.99,,2013-01-17 04:42:00,
2013-01-16 21:52:00,14.0,8.0,-100.00,NW,310,0.0,2.0,77,0.00,,,-99.99,,2013-01-17 04:52:00,
2013-01-16 22:03:00,13.0,8.0,-100.00,SW,215,1.0,2.0,78,0.00,,,-99.99,,2013-01-17 05:03:00,
2013-01-16 22:12:00,14.0,8.0,-100.00,ESE,105,0.0,3.0,79,0.00,,,-99.99,,2013-01-17 05:12:00,
2013-01-16 22:22:00,12.0,7.0,-100.00,NE,50,0.0,1.0,79,0.00,,,-99.99,,2013-01-17 05:22:00,
2013-01-16 22:32:00,13.0,8.0,-100.00,NNW,330,0.0,3.0,80,0.00,,,-99.99,,2013-01-17 05:32:00,
2013-01-16 22:42:00,13.0,8.0,-100.00,SW,215,1.0,3.0,81,0.00,,,-99.99,,2013-01-17 05:42:00,
2013-01-16 22:52:00,12.0,8.0,-100.00,North,10,1.0,2.0,81,0.00,,,-99.99,,2013-01-17 05:52:00,
2013-01-16 23:02:00,11.0,7.0,-100.00,NW,325,0.0,1.0,82,0.00,,,-99.99,,2013-01-17 06:02:00,
2013-01-16 23:11:00,12.0,8.0,-100.00,NW,305,0.0,3.0,83,0.00,,,-99.99,,2013-01-17 06:11:00,
2013-01-16 23:22:00,11.0,8.0,-100.00,West,275,1.0,3.0,83,0.00,,,-99.99,,2013-01-17 06:22:00,
2013-01-16 23:32:00,11.0,7.0,-100.00,South,180,0.0,2.0,84,0.00,,,-99.99,,2013-01-17 06:32:00,
2013-01-16 23:42:00,11.0,7.0,-100.00,SE,135,0.0,1.0,85,0.00,,,-99.99,,2013-01-17 06:42:00,
2013-01-16 23:52:00,10.0,7.0,-100.00,NE,50,0.0,2.0,85,0.00,,,-99.99,,2013-01-17 06:52:00,